Regional Weather Roundup
Issued by NWS

Home | Current Version | Previous Version | Graphics & Text | Print | Product List | Glossary On
Versions: 1 2 3 4 5 6 7 8 9 10 11 12 13 14 15 16 17 18 19 20 21 22 23 24 25 26 27 28 29 30 31 32 33 34 35 36 37 38 39 40 41 42 43 44 45 46 47 48 49 50
958
ASUS43 KBIS 302110
RWRND

NORTH DAKOTA REGIONAL WEATHER ROUNDUP
NATIONAL WEATHER SERVICE BISMARCK ND
400 PM CDT THU MAR 30 2017

NOTE: "FAIR" INDICATES FEW OR NO CLOUDS BELOW 12,000 FEET WITH NO
SIGNIFICANT WEATHER AND/OR OBSTRUCTIONS TO VISIBILITY.


NDZ001>003-009>011-017-302200-
NORTHWEST NORTH DAKOTA

CITY           SKY/WX    TMP DP  RH WIND       PRES   REMARKS
WILLISTON      FAIR      63  41  44 S8        29.68F
MINOT          CLOUDY    55  37  50 S14       29.75S
MINOT AFB      MOSUNNY   53  40  61 S13       29.74S
$$

NDZ018>021-031>035-040>046-302200-
SOUTHWEST NORTH DAKOTA

CITY           SKY/WX    TMP DP  RH WIND       PRES   REMARKS
BISMARCK       FAIR      57  35  43 S14       29.79F
DICKINSON      CLOUDY    59  34  39 S20       29.70F
GARRISON         N/A     54  36  50 S13       29.75S
HETTINGER ARPT CLOUDY    55  34  45 SE15      29.75S
$$

NDZ004>008-012>016-024-026-027-054-302200-
NORTHEAST NORTH DAKOTA

CITY           SKY/WX    TMP DP  RH WIND       PRES   REMARKS
GRAND FORKS    MOSUNNY   53  42  66 S13       29.86F
GRND FRKS AFB  MOSUNNY   53  39  60 S14       29.86F
DEVILS LAKE    FAIR      53  39  59 S15       29.82F
$$

NDZ022-023-025-028>030-036>039-047>053-302200-
SOUTHEAST NORTH DAKOTA

CITY           SKY/WX    TMP DP  RH WIND       PRES   REMARKS
FARGO          SUNNY     56  35  45 E9        29.84F
JAMESTOWN      FAIR      51  37  58 SE13      29.82F
$$





USA.gov is the U.S. government's official web portal to all federal, state and local government web resources and services.